Regional Weather Roundup
Issued by NWS Little Rock, AR

Home | Current Version | Previous Version | Text Only | Print | Product List | Glossary On
Versions: 1 2 3 4 5 6 7 8 9 10 11 12 13 14 15 16 17 18 19 20 21 22 23 24 25 26 27 28 29 30 31 32 33 34 35 36 37 38 39 40 41 42 43 44 45 46 47 48 49 50
000
ASUS44 KLZK 281705
RWRLZK

WEATHER ROUNDUP FOR ARKANSAS
NATIONAL WEATHER SERVICE LITTLE ROCK AR
1200 PM CDT THU MAY 28 2015

NOTE: "FAIR" INDICATES FEW OR NO CLOUDS BELOW 12,000 FEET WITH NO
SIGNIFICANT WEATHER AND/OR OBSTRUCTIONS TO VISIBILITY.

ARZ001-003-010-029-281800-
NORTHWEST ARKANSAS

CITY           SKY/WX    TMP DP  RH WIND       PRES   REMARKS
FAYETTEVILLE   LGT RAIN  70  68  93 CALM      30.13R
FORT SMITH     RAIN      69  64  84 S12G23    30.11R
HARRISON       CLOUDY    75  69  81 S9        30.16S
BENTONVILLE    CLOUDY    72  66  83 S8        30.14R THUNDER
ROGERS         CLOUDY    72  69  90 SE6       30.14R
SILOAM SPGS    CLOUDY    70  63  78 SW8       30.15R
HIGHFILL       TSTM      71  68  90 S6        30.13R FOG
SPRINGDALE     MOSUNNY   72  68  88 S6G12     30.16R
$$

ARZ004-005-016-281800-
NORTH CENTRAL ARKANSAS

CITY           SKY/WX    TMP DP  RH WIND       PRES   REMARKS
BATESVILLE     PTSUNNY   77  70  78 E8        30.17S
FLIPPIN        CLOUDY    77  70  78 SE5       30.13S
MTN HOME       CLOUDY    77  69  76 VRB3      30.15S
$$

ARZ040-041-281800-
WEST CENTRAL ARKANSAS

CITY           SKY/WX    TMP DP  RH WIND       PRES   REMARKS
MENA           CLOUDY    68  64  88 SW3       30.17R
MOUNT IDA      CLOUDY    81  68  64 CALM      30.10F
$$

ARZ009-017-025-026-028-281800-
NORTHEAST ARKANSAS

CITY           SKY/WX    TMP DP  RH WIND       PRES   REMARKS
CORNING          N/A     73  66  78 S6        30.18S
JONESBORO      CLOUDY    74  67  78 SE7       30.17R
NEWPORT        PTSUNNY   79  69  71 S6        30.17F
WALNUT RIDGE   PTSUNNY   75  66  73 SE8       30.17S
BLYTHEVILLE    CLOUDY    73  68  84 VRB3      30.18R
NW BLYTHEVILLE CLOUDY    75  66  73 CALM      30.18
$$

ARZ022-023-033-042-044-281800-
CENTRAL ARKANSAS

CITY           SKY/WX    TMP DP  RH WIND       PRES   REMARKS
LITTLE ROCK    PTSUNNY   81  66  60 SE6       30.14S
N LITTLE ROCK  PTSUNNY   80  70  70 E9        30.14S
JACKSONVILLE   MOSUNNY   80  68  66 SE6       30.14S
SEARCY         CLOUDY    79  70  74 E6        30.17S
HOT SPRINGS    PTSUNNY   81  68  64 SE6       30.13S
RUSSELLVILLE   CLOUDY    80  71  74 E5        30.13R
CLINTON        FAIR      81  72  74 SE3       30.15F
$$

ARZ036-281800-
EAST ARKANSAS

CITY           SKY/WX    TMP DP  RH WIND       PRES   REMARKS
WEST MEMPHIS   CLOUDY    76  69  79 CALM      30.16R
$$

ARZ050-053-066-070-073-281800-
SOUTHWEST ARKANSAS

CITY           SKY/WX    TMP DP  RH WIND       PRES   REMARKS
ARKADELPHIA    PTSUNNY   85  73  67 S7        30.12F HX  91
CAMDEN         MOSUNNY   84  66  54 CALM      30.13S HX  86
TEXARKANA      PTSUNNY   81  73  76 S6        30.12R HX  86
EL DORADO      MOSUNNY   83  69  62 CALM      30.13F HX  86
DE QUEEN       TSTM      67  66  97 E12       30.13F
$$

ARZ056-057-069-281800-
SOUTHEAST ARKANSAS

CITY           SKY/WX    TMP DP  RH WIND       PRES   REMARKS
PINE BLUFF     MOSUNNY   79  69  71 SE6       30.16S
STUTTGART      CLOUDY    73  68  83 SE3       30.17S
MONTICELLO     MOSUNNY   80  69  69 VRB3      30.15S

$$




USA.gov is the U.S. government's official web portal to all federal, state and local government web resources and services.